TimeEST,TemperatureF,Dew PointF,Humidity,Sea Level PressureIn,VisibilityMPH,Wind Direction,Wind SpeedMPH,Gust SpeedMPH,PrecipitationIn,Events,Conditions,WindDirDegrees,DateUTC
12:53 AM,48.0,42.1,80,30.02,10.0,SW,6.9,-,N/A,,Clear,230,2012-11-23 05:53:00
1:53 AM,54.0,42.1,64,30.00,10.0,SSW,10.4,-,N/A,,Mostly Cloudy,200,2012-11-23 06:53:00
2:53 AM,57.9,39.9,51,29.98,10.0,SSW,16.1,-,N/A,,Overcast,210,2012-11-23 07:53:00
3:53 AM,57.9,39.9,51,29.97,10.0,SW,11.5,20.7,N/A,,Overcast,220,2012-11-23 08:53:00
4:53 AM,57.0,41.0,55,29.96,10.0,SSW,12.7,-,N/A,,Overcast,210,2012-11-23 09:53:00
5:53 AM,55.9,43.0,62,29.96,10.0,SW,11.5,-,0.00,Rain,Light Rain,220,2012-11-23 10:53:00
6:01 AM,55.4,42.8,63,29.96,10.0,SW,8.1,-,0.00,Rain,Light Rain,220,2012-11-23 11:01:00
6:53 AM,55.9,46.0,69,29.98,10.0,SW,10.4,-,0.00,,Overcast,230,2012-11-23 11:53:00
7:53 AM,53.1,44.1,71,29.99,10.0,West,10.4,19.6,0.00,,Overcast,270,2012-11-23 12:53:00
8:53 AM,48.9,35.1,59,30.02,10.0,West,15.0,-,N/A,,Overcast,280,2012-11-23 13:53:00
9:53 AM,46.0,34.0,63,30.05,10.0,West,17.3,23.0,N/A,,Mostly Cloudy,270,2012-11-23 14:53:00
10:53 AM,48.9,30.9,50,30.06,10.0,West,17.3,25.3,N/A,,Clear,270,2012-11-23 15:53:00
11:53 AM,48.9,28.9,46,30.05,10.0,WNW,20.7,29.9,N/A,,Clear,300,2012-11-23 16:53:00
12:53 PM,46.9,28.0,48,30.04,10.0,West,21.9,27.6,N/A,,Partly Cloudy,280,2012-11-23 17:53:00
1:53 PM,48.0,28.0,46,30.03,10.0,West,16.1,28.8,N/A,,Partly Cloudy,270,2012-11-23 18:53:00
2:53 PM,46.9,26.1,44,30.05,10.0,West,18.4,29.9,N/A,,Clear,280,2012-11-23 19:53:00
3:53 PM,45.0,25.0,46,30.07,10.0,WNW,17.3,28.8,N/A,,Partly Cloudy,290,2012-11-23 20:53:00
4:53 PM,42.1,25.0,51,30.11,10.0,WNW,12.7,21.9,N/A,,Partly Cloudy,290,2012-11-23 21:53:00
5:53 PM,39.9,24.1,53,30.15,10.0,WNW,10.4,17.3,N/A,,Mostly Cloudy,290,2012-11-23 22:53:00
6:53 PM,39.0,23.0,53,30.17,10.0,NNW,10.4,21.9,N/A,,Overcast,330,2012-11-23 23:53:00
7:53 PM,37.0,23.0,57,30.20,10.0,NNW,11.5,20.7,N/A,,Overcast,330,2012-11-24 00:53:00
8:53 PM,36.0,21.0,55,30.21,10.0,NNW,11.5,17.3,N/A,,Overcast,330,2012-11-24 01:53:00
9:53 PM,35.1,21.0,57,30.22,10.0,Variable,5.8,-,N/A,,Overcast,0,2012-11-24 02:53:00
10:53 PM,34.0,21.0,59,30.22,10.0,NNW,8.1,-,N/A,,Overcast,330,2012-11-24 03:53:00
11:53 PM,34.0,19.9,56,30.22,10.0,NW,8.1,-,N/A,,Overcast,320,2012-11-24 04:53:00